Content
SEND FEEDBACK

Daily
Averages
Monthly
Summary
Thailand

BANGKOK, THAILAND


Home > Asia > Thailand
Elevation: 66 feet     Latitude: 13 44N     Longitude: 100 34E

WEATHER
 
SELECT A DAY
Number of Records: 235,544;   Date Range: 7/1/96 - 8/28/14
 
SHARE

PRINT THIS DATA

[ ← Previous Day ]
WEATHER ALMANAC - FEBRUARY 9, 2013
[ Next Day → ]
[ °C ]   °F
Weather ElementAverageHighLow
Temperature86.1 °F95 °F (2:00 pm)82 °F (1:00 am)
Dewpoint76 °F77 °F (2:00 am)73.4 °F (3:30 pm)
Humidity72.1 %84 % (2:00 am)47 % (1:00 pm)
Barometer29.84 in29.89 in (8:00 am)29.77 in (3:00 pm)
Wind Speed4.7 mph11.5 mph (3:30 pm)
Weather ElementAverage
Visibility6.2 mi
Wind DirectionSSE (172.4 °)

Weather ElementTotal
Precipitation---
Cooling Degree Days23.5 (Base 65)
Growing Degree Days38.5 (Base 50)
Averaged from 51 records on February 9, 2013
WEATHER CONDITIONS BREAKOUT
WIND DIRECTION BREAKOUT
WEATHER BY HOUR - FEBRUARY 9, 2013
[ °C ]   °F
Local TimeTemperatureDewpointHumidityBarometerVisibilityWind DirectionWind SpeedGust SpeedPrecipitationEventsConditions
12:30 AM82.4 °F75.2 °F79 %29.86 in6.2 miSSW (210°)6.9 mphScattered Clouds
1:00 AM82.0 °F76.0 °F77 %29.86 in6.0 miSSW (210°)4.6 mphScattered Clouds
1:00 AM82.4 °F75.2 °F79 %29.86 in6.2 miSSW (210°)4.6 mphScattered Clouds
1:30 AM82.4 °F75.2 °F79 %29.83 in6.2 miSSW (210°)4.6 mphScattered Clouds
2:00 AM82.4 °F77.0 °F84 %29.83 in6.2 miSSW (210°)6.9 mphScattered Clouds
2:30 AM82.4 °F77.0 °F84 %29.83 in6.2 miSSW (200°)4.6 mphScattered Clouds
3:00 AM82.4 °F77.0 °F84 %29.83 in6.2 miSSW (210°)4.6 mphScattered Clouds
3:30 AM82.4 °F77.0 °F84 %29.83 in6.2 miSouth (190°)3.5 mphScattered Clouds
4:00 AM82.4 °F77.0 °F84 %29.80 in6.2 miSouth (180°)3.5 mphScattered Clouds
4:30 AM82.4 °F77.0 °F84 %29.80 in6.2 miSSE (160°)3.5 mphMostly Cloudy
5:00 AM82.4 °F77.0 °F84 %29.83 in6.2 miSouth (180°)2.3 mphMostly Cloudy
5:30 AM82.4 °F77.0 °F84 %29.83 in6.2 miSouth (170°)2.3 mphMostly Cloudy
6:00 AM82.4 °F77.0 °F84 %29.83 in6.2 miCalmMostly Cloudy
6:30 AM82.4 °F77.0 °F84 %29.86 in6.2 miSSE (160°)4.6 mphMostly Cloudy
7:00 AM82.0 °F77.0 °F82 %29.86 in6.0 miSouth (190°)3.5 mphPartly Cloudy
7:00 AM82.4 °F77.0 °F84 %29.86 in6.2 miSouth (190°)3.5 mphMostly Cloudy
7:30 AM82.4 °F77.0 °F84 %29.86 in6.2 miSSE (160°)3.5 mphMostly Cloudy
8:00 AM82.4 °F75.2 °F79 %29.89 in6.2 miSouth (190°)3.5 mphMostly Cloudy
8:30 AM82.4 °F75.2 °F79 %29.89 in6.2 miEast (100°)3.5 mphMostly Cloudy
9:00 AM84.2 °F75.2 °F74 %29.89 in6.2 miSSE (150°)3.5 mphMostly Cloudy
9:30 AM86.0 °F75.2 °F70 %29.89 in6.2 miSSW (200°)6.9 mphMostly Cloudy
10:00 AM87.8 °F77.0 °F70 %29.89 in6.2 miSW (220°)5.8 mphMostly Cloudy
10:30 AM87.8 °F77.0 °F70 %29.89 in6.2 miSSW (200°)5.8 mphMostly Cloudy
11:00 AM87.8 °F77.0 °F70 %29.89 in6.2 miSouth (180°)4.6 mphMostly Cloudy
11:30 AM89.6 °F77.0 °F66 %29.89 in6.2 miSW (220°)6.9 mphMostly Cloudy
12:00 PM91.4 °F77.0 °F63 %29.86 in6.2 miWSW (240°)5.8 mphMostly Cloudy
12:30 PM91.4 °F77.0 °F63 %29.86 in6.2 miSSW (200°)5.8 mphMostly Cloudy
1:00 PM94.0 °F76.0 °F47 %29.85 in6.0 miSouth (180°)3.5 mphPartly Cloudy
1:00 PM93.2 °F75.2 °F56 %29.83 in6.2 miSouth (180°)3.5 mphMostly Cloudy
1:30 PM93.2 °F75.2 °F56 %29.83 in6.2 miSouth (180°)5.8 mphMostly Cloudy
2:00 PM95.0 °F75.2 °F53 %29.80 in6.2 miSouth (180°)5.8 mphMostly Cloudy
2:30 PM95.0 °F77.0 °F56 %29.80 in6.2 miSouth (180°)5.8 mphMostly Cloudy
3:00 PM93.2 °F77.0 °F59 %29.77 in6.2 miSSE (150°)10.4 mphMostly Cloudy
3:30 PM89.6 °F73.4 °F59 %29.77 in6.2 miESE (120°)11.5 mphRainLight Rain
4:00 PM89.6 °F75.2 °F62 %29.77 in6.2 miESE (120°)5.8 mphThunderstormMostly Cloudy
4:30 PM89.6 °F75.2 °F62 %29.77 in6.2 miEast (90°)5.8 mphThunderstormMostly Cloudy
5:00 PM87.8 °F75.2 °F66 %29.80 in6.2 miEast (90°)3.5 mphMostly Cloudy
5:30 PM87.8 °F77.0 °F70 %29.80 in6.2 miWest (270°)4.6 mphMostly Cloudy
6:00 PM86.0 °F77.0 °F74 %29.80 in6.2 miENE (60°)3.5 mphMostly Cloudy
6:30 PM86.0 °F77.0 °F74 %29.83 in6.2 miEast (90°)3.5 mphMostly Cloudy
7:00 PM86.0 °F75.0 °F63 %29.83 in6.0 miEast (90°)3.5 mphPartly Cloudy
7:00 PM86.0 °F75.2 °F70 %29.83 in6.2 miEast (90°)3.5 mphMostly Cloudy
7:30 PM86.0 °F75.2 °F70 %29.83 in6.2 miESE (120°)3.5 mphMostly Cloudy
8:00 PM86.0 °F75.2 °F70 %29.86 in6.2 miSouth (190°)3.5 mphMostly Cloudy
8:30 PM86.0 °F75.2 °F70 %29.86 in6.2 miSSW (210°)4.6 mphMostly Cloudy
9:00 PM86.0 °F75.2 °F70 %29.86 in6.2 miSSW (200°)4.6 mphMostly Cloudy
9:30 PM86.0 °F75.2 °F70 %29.89 in6.2 miSSW (200°)3.5 mphMostly Cloudy
10:00 PM86.0 °F75.2 °F70 %29.89 in6.2 miSSW (200°)4.6 mphMostly Cloudy
10:30 PM84.2 °F75.2 °F74 %29.89 in6.2 miSSW (210°)4.6 mphMostly Cloudy
11:00 PM84.2 °F75.2 °F74 %29.89 in6.2 miSW (230°)5.8 mphMostly Cloudy
11:30 PM84.2 °F75.2 °F74 %29.89 in6.2 miSW (220°)4.6 mphMostly Cloudy
Hourly data recorded from VTBD, located miles away from Bangkok, Thailand







STORIES FROM OUR PARTNERS